Regional Weather Roundup
Issued by NWS

Home | Current Version | Previous Version | Text Only | Print | Product List | Glossary Off
Versions: 1 2 3 4 5 6 7 8 9 10 11 12 13 14 15 16 17 18 19 20 21 22 23 24 25 26 27 28 29 30 31 32 33 34 35 36 37 38 39 40 41 42 43 44 45 46 47 48 49 50

981
ASUS43 KLSX 270610
RWRMO

WEATHER SUMMARY FOR MISSOURI
NATIONAL WEATHER SERVICE SPRINGFIELD MO
100 AM CDT SAT AUG 27 2016

NOTE: "FAIR" INDICATES FEW OR NO CLOUDS BELOW 12,000 FEET WITH NO
       SIGNIFICANT WEATHER AND/OR OBSTRUCTIONS TO VISIBILITY.
       CURRENT SKY AND/OR WEATHER CONDITIONS ARE NOT AVAILABLE FOR
       CHILLICOTHE AND FARMINGTON.

MOZ001>031-035>038-043-044-053-054-270700-
...NORTHERN AND WESTERN MISSOURI...

CITY           SKY/WX    TMP DP  RH WIND       PRES   REMARKS
KANSAS CTY INT CLOUDY    70  67  90 S12       30.04S
6HR MIN TEMP:  69; 6HR MAX TEMP:  71; 6HR PCP:  1.69;

KANSAS C DTWN  LGT RAIN  70  66  87 SW3       30.03S
6HR MIN TEMP:  70; 6HR MAX TEMP:  83; 6HR PCP:  4.24;

LEE`S SUMMIT   LGT RAIN  68  67  96 NE8       30.06R FOG
6HR MIN TEMP:  68; 6HR MAX TEMP:  79; 6HR PCP:  0.48;

ST JOSEPH      CLOUDY    69  68  96 S5        30.03R FOG
6HR MIN TEMP:  68; 6HR MAX TEMP:  70; 6HR PCP:  0.06;

KIRKSVILLE     LGT RAIN  70  67  90 SW7       30.06F FOG
6HR MIN TEMP:  69; 6HR MAX TEMP:  75; 6HR PCP:  1.23;


$$
MOZ066>068-077>081-088>096-101>105-270700-
...SOUTHWEST MISSOURI...

CITY           SKY/WX    TMP DP  RH WIND       PRES   REMARKS
SPRINGFIELD    CLOUDY    74  70  87 SE7       30.04F
6HR MIN TEMP:  73; 6HR MAX TEMP:  79;

JOPLIN         PTCLDY    69  68  96 SE3       30.04F
6HR MIN TEMP:  69; 6HR MAX TEMP:  78;

BRANSON        CLOUDY    72  72 100 CALM      30.07S

$$
MOZ032>034-039>042-045>050-055>058-069>072-270700-
...CENTRAL MISSOURI...

CITY           SKY/WX    TMP DP  RH WIND       PRES   REMARKS
COLUMBIA       LGT RAIN  74  72  93 N6        30.06R
6HR MIN TEMP:  73; 6HR MAX TEMP:  79; 6HR PCP: TRACE;

JEFFERSON CITY CLOUDY    73  72  96 CALM      30.04R
6HR MIN TEMP:  73; 6HR MAX TEMP:  80; 6HR PCP: TRACE;

ROLLA          CLOUDY    73  71  93 SW7       30.06R
6HR MIN TEMP:  71; 6HR MAX TEMP:  77; 6HR PCP:  0.18;

SEDALIA        PTCLDY    72  70  93 NW5       30.06R FOG
6HR MIN TEMP:  72; 6HR MAX TEMP:  80;

WHITEMAN AFB   CLEAR     71  71 100 NE6       30.04R
OSAGE BEACH    MOCLDY    72  70  93 CALM      30.06R

$$
MOZ051-052-059>065-270700-
...EAST CENTRAL MISSOURI...

CITY           SKY/WX    TMP DP  RH WIND       PRES   REMARKS
ST LOUIS INTL  NOT AVBL
SPIRIT OF STL  CLOUDY    78  74  87 CALM      30.03R
6HR MIN TEMP:  78; 6HR MAX TEMP:  81; 6HR PCP: TRACE;

ST CHARLES     CLOUDY    74  73  97 CALM      30.04R
6HR MIN TEMP:  73; 6HR MAX TEMP:  79; 6HR PCP:  0.01;


$$
MOZ072>076-082>087-097>100-106>115-270700-
...SOUTH CENTRAL AND SOUTHEAST MISSOURI...

CITY           SKY/WX    TMP DP  RH WIND       PRES   REMARKS
CAPE GIRARDEAU CLOUDY    74  70  87 SE12      30.06F
6HR MIN TEMP:  73; 6HR MAX TEMP:  80; 6HR PCP: TRACE;

FARMINGTON     CLOUDY    72  68  87 SE8       30.08R
6HR MIN TEMP:  72; 6HR MAX TEMP:  83;

POPLAR BLUFF   CLOUDY    72  70  93 CALM      30.05S
6HR MIN TEMP:  72; 6HR MAX TEMP:  76; 6HR PCP:  0.02;

WEST PLAINS    CLEAR     71  67  87 S3        30.08S
6HR MIN TEMP:  71; 6HR MAX TEMP:  83;


$$




USA.gov is the U.S. government's official web portal to all federal, state and local government web resources and services.